User: anonymous   Login
Location: Unspecified
(0.0000°N, 0.0000°E)
Time: 11:43:20
(UTC+02:00)
Language:

Landsat 4 - Orbit

View from above orbital plane
View from above orbital plane
View from above satellite
View from above satellite

Ground track
Ground track

The orbit data is extracted from the following two-line orbital elements,

1 13367U 82072A   17295.95071029 +.00000860 +00000-0 +48703-4 0  9996
2 13367 098.2608 109.8469 0014275 123.6157 003.0155 15.16081754329697
Epoch (UTC): 22 October 2017 22:49:01
Eccentricity: 0.0014275
inclination: 98.2608°
perigee height: 508 km
apogee height: 527 km
right ascension of ascending node: 109.8469°
argument of perigee: 123.6157°
revolutions per day: 15.16081754
mean anomaly at epoch: 3.0155°
orbit number at epoch: 32969

The dashed part of the orbit path shows where the satellite is in the earth's shadow,  

DLR